| time (UTC) | temp F | wind direction | speed knots | gust knots | rain 1hr in | rain 24hr in | rain mn in | humidity % | barometer mb |
| 20260906215037 | 102 | 184 | 2.6 | 7.8 | 0.00 | 0.00 | 0.00 | 23 | 1014.5 |
| 20260906214553 | 102 | 131 | 3.5 | 8.7 | 0.00 | 0.00 | 0.00 | 23 | 1014.7 |
| 20260906214039 | 102 | 39 | 2.6 | 8.7 | 0.00 | 0.00 | 0.00 | 24 | 1014.7 |
| 20260906213537 | 102 | 104 | 3.5 | 7.8 | 0.00 | 0.00 | 0.00 | 24 | 1014.9 |
| 20260906213044 | 102 | 157 | 3.5 | 7.8 | 0.00 | 0.00 | 0.00 | 25 | 1015.0 |
| 20260906212536 | 102 | 60 | 2.6 | 7.0 | 0.00 | 0.00 | 0.00 | 25 | 1015.1 |
| 20260906212037 | 101 | 5 | 1.7 | 6.1 | 0.00 | 0.00 | 0.00 | 25 | 1015.2 |
| 20260906211553 | 101 | 54 | 0.9 | 5.2 | 0.00 | 0.00 | 0.00 | 26 | 1015.3 |
| 20260906211036 | 100 | 242 | 2.6 | 5.2 | 0.00 | 0.00 | 0.00 | 26 | 1015.3 |
| 20260906210537 | 100 | 30 | 1.7 | 11.3 | 0.00 | 0.00 | 0.00 | 27 | 1015.5 |
| 20260906210105 | 100 | 47 | 6.1 | 11.3 | 0.00 | 0.00 | 0.00 | 27 | 1015.6 |
| 20260906205534 | 99 | 144 | 0.0 | 5.2 | 0.00 | 0.00 | 0.00 | 27 | 1015.6 |
| 20260906205033 | 98 | 155 | 1.7 | 7.8 | 0.00 | 0.00 | 0.00 | 27 | 1015.6 |
| 20260906204558 | 98 | 144 | 3.5 | 7.8 | 0.00 | 0.00 | 0.00 | 27 | 1015.7 |
| 20260906204036 | 99 | 211 | 1.7 | 5.2 | 0.00 | 0.00 | 0.00 | 27 | 1015.8 |
| 20260906203533 | 98 | 23 | 0.0 | 6.1 | 0.00 | 0.00 | 0.00 | 29 | 1015.7 |
| 20260906203050 | 98 | 0 | 0.9 | 6.1 | 0.00 | 0.00 | 0.00 | 29 | 1015.8 |
| 20260906202536 | 98 | 57 | 2.6 | 7.0 | 0.00 | 0.00 | 0.00 | 29 | 1015.7 |
| 20260906202036 | 97 | 48 | 1.7 | 7.0 | 0.00 | 0.00 | 0.00 | 29 | 1015.9 |
| 20260906201601 | 96 | 132 | 0.0 | 5.2 | 0.00 | 0.00 | 0.00 | 30 | 1016.0 |
| 20260906201037 | 95 | 144 | 0.0 | 7.0 | 0.00 | 0.00 | 0.00 | 30 | 1016.1 |
| 20260906200537 | 95 | 0 | 2.6 | 7.0 | 0.00 | 0.00 | 0.00 | 30 | 1016.1 |
| 20260906200059 | 95 | 138 | 1.7 | 7.8 | 0.00 | 0.00 | 0.00 | 29 | 1016.1 |
| 20260906195537 | 95 | 144 | 2.6 | 7.8 | 0.00 | 0.00 | 0.00 | 30 | 1016.2 |
| 20260906195036 | 94 | 65 | 1.7 | 6.1 | 0.00 | 0.00 | 0.00 | 31 | 1016.3 |
| 20260906194553 | 94 | 146 | 1.7 | 5.2 | 0.00 | 0.00 | 0.00 | 32 | 1016.3 |
| 20260906194036 | 93 | 134 | 1.7 | 8.7 | 0.00 | 0.00 | 0.00 | 33 | 1016.4 |
| 20260906193534 | 92 | 44 | 2.6 | 8.7 | 0.00 | 0.00 | 0.00 | 35 | 1016.5 |
| 20260906193051 | 92 | 100 | 2.6 | 7.0 | 0.00 | 0.00 | 0.00 | 35 | 1016.5 |
| 20260906192537 | 92 | 79 | 2.6 | 7.0 | 0.00 | 0.00 | 0.00 | 35 | 1016.5 |
| 20260906192036 | 92 | 130 | 0.9 | 4.3 | 0.00 | 0.00 | 0.00 | 34 | 1016.7 |
| 20260906191549 | 92 | 30 | 0.9 | 6.1 | 0.00 | 0.00 | 0.00 | 35 | 1016.8 |
| 20260906191037 | 91 | 198 | 1.7 | 8.7 | 0.00 | 0.00 | 0.00 | 34 | 1017.0 |
| 20260906190537 | 90 | 92 | 3.5 | 8.7 | 0.00 | 0.00 | 0.00 | 36 | 1017.0 |
| 20260906190140 | 91 | 5 | 1.7 | 7.8 | 0.00 | 0.00 | 0.00 | 35 | 1017.0 |
| 20260906185537 | 91 | 88 | 2.6 | 8.7 | 0.00 | 0.00 | 0.00 | 35 | 1017.2 |
| 20260906185037 | 90 | 66 | 3.5 | 8.7 | 0.00 | 0.00 | 0.00 | 38 | 1017.2 |
| 20260906184554 | 89 | 76 | 1.7 | 7.8 | 0.00 | 0.00 | 0.00 | 39 | 1017.2 |
| 20260906184036 | 89 | 46 | 3.5 | 7.8 | 0.00 | 0.00 | 0.00 | 39 | 1017.4 |
| 20260906183533 | 89 | 149 | 0.9 | 6.1 | 0.00 | 0.00 | 0.00 | 40 | 1017.5 |
| 20260906183059 | 89 | 31 | 0.9 | 6.1 | 0.00 | 0.00 | 0.00 | 42 | 1017.6 |
| 20260906182545 | 88 | 74 | 2.6 | 6.1 | 0.00 | 0.00 | 0.00 | 42 | 1017.7 |
| 20260906182036 | 88 | 98 | 1.7 | 6.1 | 0.00 | 0.00 | 0.00 | 42 | 1018.0 |
| 20260906181550 | 87 | 69 | 2.6 | 7.0 | 0.00 | 0.00 | 0.00 | 43 | 1018.0 |
| 20260906181037 | 87 | 96 | 1.7 | 7.0 | 0.00 | 0.00 | 0.00 | 44 | 1018.1 |
| 20260906180536 | 86 | 52 | 2.6 | 7.0 | 0.00 | 0.00 | 0.00 | 44 | 1018.3 |
| 20260906180045 | 85 | 136 | 1.7 | 6.1 | 0.00 | 0.00 | 0.00 | 45 | 1018.3 |
| 20260906175534 | 85 | 145 | 0.9 | 6.1 | 0.00 | 0.00 | 0.00 | 45 | 1018.3 |
| 20260906175037 | 85 | 107 | 0.9 | 6.1 | 0.00 | 0.00 | 0.00 | 46 | 1018.5 |
| 20260906174552 | 84 | 0 | 0.9 | 6.1 | 0.00 | 0.00 | 0.00 | 47 | 1018.6 |
| 20260906174037 | 83 | 294 | 0.9 | 5.2 | 0.00 | 0.00 | 0.00 | 48 | 1018.7 |
| 20260906173533 | 83 | 294 | 1.7 | 5.2 | 0.00 | 0.00 | 0.00 | 49 | 1018.9 |
| 20260906173057 | 82 | 200 | 0.9 | 5.2 | 0.00 | 0.00 | 0.00 | 50 | 1018.9 |
| 20260906172538 | 81 | 0 | 0.9 | 7.8 | 0.00 | 0.00 | 0.00 | 51 | 1018.9 |
| 20260906172037 | 81 | 277 | 4.3 | 7.8 | 0.00 | 0.00 | 0.00 | 51 | 1019.0 |
| 20260906171551 | 81 | 332 | 2.6 | 5.2 | 0.00 | 0.00 | 0.00 | 52 | 1019.0 |
| 20260906171034 | 80 | 286 | 0.9 | 3.5 | 0.00 | 0.00 | 0.00 | 53 | 1018.9 |
| 20260906170537 | 80 | 0 | 0.9 | 7.0 | 0.00 | 0.00 | 0.00 | 52 | 1019.0 |
| 20260906170053 | 81 | 281 | 3.5 | 7.0 | 0.00 | 0.00 | 0.00 | 51 | 1019.2 |
| 20260906165536 | 86 | 290 | 0.0 | 3.5 | 0.00 | 0.00 | 0.00 | 43 | 1019.2 |
| 20260906165033 | 97 | 35 | 0.9 | 5.2 | 0.00 | 0.00 | 0.00 | 34 | 1019.3 |
| 20260906164553 | 95 | 269 | 2.6 | 5.2 | 0.00 | 0.00 | 0.00 | 37 | 1019.3 |
| 20260906164037 | 85 | 315 | 0.9 | 4.3 | 0.00 | 0.00 | 0.00 | 50 | 1019.4 |
| 20260906163537 | 75 | 113 | 0.9 | 5.2 | 0.00 | 0.00 | 0.00 | 64 | 1019.4 |
| 20260906163054 | 74 | 331 | 1.7 | 5.2 | 0.00 | 0.00 | 0.00 | 65 | 1019.4 |
| 20260906162538 | 73 | 302 | 1.7 | 4.3 | 0.00 | 0.00 | 0.00 | 66 | 1019.4 |
| 20260906162037 | 73 | 360 | 0.9 | 6.1 | 0.00 | 0.00 | 0.00 | 67 | 1019.4 |
| 20260906161550 | 73 | 0 | 1.7 | 8.7 | 0.00 | 0.00 | 0.00 | 67 | 1019.4 |
| 20260906161037 | 72 | 324 | 2.6 | 8.7 | 0.00 | 0.00 | 0.00 | 67 | 1019.4 |
| 20260906160537 | 72 | 360 | 1.7 | 8.7 | 0.00 | 0.00 | 0.00 | 68 | 1019.5 |
| 20260906160058 | 72 | 360 | 3.5 | 8.7 | 0.00 | 0.00 | 0.00 | 69 | 1019.5 |
| 20260906155537 | 71 | 342 | 0.0 | 7.0 | 0.00 | 0.00 | 0.00 | 69 | 1019.5 |
| 20260906155035 | 71 | 312 | 1.7 | 7.0 | 0.00 | 0.00 | 0.00 | 70 | 1019.5 |
| 20260906154556 | 71 | 343 | 2.6 | 7.8 | 0.00 | 0.00 | 0.00 | 70 | 1019.4 |
| 20260906154037 | 71 | 352 | 1.7 | 7.8 | 0.00 | 0.00 | 0.00 | 70 | 1019.4 |
| 20260906153537 | 70 | 360 | 3.5 | 7.8 | 0.00 | 0.00 | 0.00 | 70 | 1019.4 |
| 20260906153053 | 70 | 360 | 3.5 | 7.0 | 0.00 | 0.00 | 0.00 | 71 | 1019.5 |
| 20260906152538 | 70 | 360 | 1.7 | 7.0 | 0.00 | 0.00 | 0.00 | 71 | 1019.5 |
| 20260906152118 | 70 | 360 | 1.7 | 6.1 | 0.00 | 0.00 | 0.00 | 71 | 1019.4 |
| 20260906151555 | 70 | 10 | 2.6 | 6.1 | 0.00 | 0.00 | 0.00 | 70 | 1019.4 |
| 20260906151041 | 71 | 360 | 3.5 | 6.1 | 0.00 | 0.00 | 0.00 | 68 | 1019.7 |
| 20260906150539 | 73 | 360 | 0.9 | 7.0 | 0.00 | 0.00 | 0.00 | 63 | 1019.7 |
| 20260906150045 | 77 | 340 | 0.9 | 7.0 | 0.00 | 0.00 | 0.00 | 58 | 1019.6 |
| 20260906145536 | 77 | 302 | 1.7 | 6.1 | 0.00 | 0.00 | 0.00 | 60 | 1019.6 |
| 20260906145038 | 74 | 39 | 2.6 | 7.8 | 0.00 | 0.00 | 0.00 | 66 | 1019.6 |
| 20260906144554 | 70 | 352 | 1.7 | 7.8 | 0.00 | 0.00 | 0.00 | 73 | 1019.6 |
| 20260906144034 | 68 | 290 | 2.6 | 7.8 | 0.00 | 0.00 | 0.00 | 75 | 1019.6 |
| 20260906143538 | 68 | 333 | 2.6 | 7.8 | 0.00 | 0.00 | 0.00 | 75 | 1019.7 |
| 20260906143054 | 67 | 331 | 2.6 | 7.0 | 0.00 | 0.00 | 0.00 | 76 | 1019.6 |
| 20260906142541 | 67 | 281 | 1.7 | 5.2 | 0.00 | 0.00 | 0.00 | 76 | 1019.6 |
| 20260906142038 | 67 | 331 | 2.6 | 5.2 | 0.00 | 0.00 | 0.00 | 77 | 1019.6 |
| 20260906141550 | 67 | 306 | 2.6 | 5.2 | 0.00 | 0.00 | 0.00 | 77 | 1019.6 |
| 20260906141037 | 66 | 317 | 1.7 | 4.3 | 0.00 | 0.00 | 0.00 | 77 | 1019.5 |
| 20260906140540 | 66 | 335 | 1.7 | 4.3 | 0.00 | 0.00 | 0.00 | 77 | 1019.6 |
| 20260906140050 | 66 | 320 | 2.6 | 4.3 | 0.00 | 0.00 | 0.00 | 77 | 1019.5 |
| 20260906135537 | 66 | 5 | 0.9 | 4.3 | 0.00 | 0.00 | 0.00 | 76 | 1019.5 |
| 20260906135037 | 66 | 360 | 1.7 | 3.5 | 0.00 | 0.00 | 0.00 | 75 | 1019.5 |
| 20260906134556 | 67 | 348 | 0.9 | 4.3 | 0.00 | 0.00 | 0.00 | 73 | 1019.4 |
| 20260906134037 | 68 | 319 | 2.6 | 4.3 | 0.00 | 0.00 | 0.00 | 57 | 1019.4 |
| 20260906133536 | 66 | 328 | 1.7 | 6.1 | 0.00 | 0.00 | 0.00 | 60 | 1019.4 |
| 20260906133109 | 65 | 321 | 2.6 | 6.1 | 0.00 | 0.00 | 0.00 | 62 | 1019.3 |
| 20260906132538 | 65 | 319 | 1.7 | 5.2 | 0.00 | 0.00 | 0.00 | 63 | 1019.3 |
| 20260906132038 | 64 | 360 | 2.6 | 5.2 | 0.00 | 0.00 | 0.00 | 65 | 1019.3 |
| 20260906131559 | 64 | 360 | 1.7 | 3.5 | 0.00 | 0.00 | 0.00 | 66 | 1019.2 |
| 20260906131037 | 63 | 0 | 1.7 | 3.5 | 0.00 | 0.00 | 0.00 | 67 | 1019.1 |
| 20260906130537 | 63 | 360 | 1.7 | 3.5 | 0.00 | 0.00 | 0.00 | 73 | 1019.1 |
| 20260906130104 | 61 | 300 | 0.9 | 4.3 | 0.00 | 0.00 | 0.00 | 89 | 1018.9 |
| 20260906125540 | 61 | 0 | 1.7 | 4.3 | 0.00 | 0.00 | 0.00 | 89 | 1018.9 |
| 20260906125040 | 60 | 294 | 1.7 | 3.5 | 0.00 | 0.00 | 0.00 | 89 | 1018.9 |
| 20260906124555 | 60 | 296 | 1.7 | 2.6 | 0.00 | 0.00 | 0.00 | 90 | 1018.9 |
| 20260906124038 | 60 | 287 | 0.9 | 2.6 | 0.00 | 0.00 | 0.00 | 90 | 1018.9 |
| 20260906123534 | 60 | 273 | 0.9 | 2.6 | 0.00 | 0.00 | 0.00 | 89 | 1018.9 |
| 20260906123054 | 60 | 0 | 0.0 | 2.6 | 0.00 | 0.00 | 0.00 | 89 | 1019.0 |
| 20260906122538 | 60 | 283 | 0.0 | 1.7 | 0.00 | 0.00 | 0.00 | 90 | 1019.0 |
| 20260906122039 | 60 | 0 | 0.0 | 3.5 | 0.00 | 0.00 | 0.00 | 90 | 1019.0 |
| 20260906121552 | 60 | 0 | 0.0 | 3.5 | 0.00 | 0.00 | 0.00 | 90 | 1019.0 |
| 20260906121041 | 60 | 302 | 0.9 | 3.5 | 0.00 | 0.00 | 0.00 | 89 | 1018.9 |
| 20260906120537 | 60 | 302 | 1.7 | 3.5 | 0.00 | 0.00 | 0.00 | 89 | 1018.9 |
| 20260906120052 | 60 | 296 | 1.7 | 5.2 | 0.00 | 0.00 | 0.00 | 88 | 1019.0 |
| 20260906115537 | 60 | 300 | 1.7 | 5.2 | 0.00 | 0.00 | 0.00 | 88 | 1019.0 |
| 20260906115036 | 61 | 284 | 0.0 | 1.7 | 0.00 | 0.00 | 0.00 | 88 | 1019.2 |
| 20260906114554 | 61 | 0 | 0.0 | 2.6 | 0.00 | 0.00 | 0.00 | 89 | 1019.1 |
| 20260906114037 | 61 | 0 | 0.0 | 3.5 | 0.00 | 0.00 | 0.00 | 89 | 1018.9 |
| 20260906113536 | 61 | 321 | 0.9 | 3.5 | 0.00 | 0.00 | 0.00 | 89 | 1018.9 |
| 20260906113058 | 60 | 0 | 0.0 | 3.5 | 0.00 | 0.00 | 0.00 | 89 | 1019.0 |
| 20260906112534 | 60 | 0 | 0.9 | 5.2 | 0.00 | 0.00 | 0.00 | 88 | 1018.9 |
| 20260906112038 | 60 | 322 | 2.6 | 5.2 | 0.00 | 0.00 | 0.00 | 88 | 1018.7 |
| 20260906111554 | 60 | 326 | 1.7 | 3.5 | 0.00 | 0.00 | 0.00 | 88 | 1018.7 |
| 20260906111034 | 61 | 302 | 0.9 | 2.6 | 0.00 | 0.00 | 0.00 | 88 | 1018.7 |
| 20260906110537 | 60 | 348 | 0.0 | 1.7 | 0.00 | 0.00 | 0.00 | 88 | 1018.7 |
| 20260906110057 | 60 | 0 | 0.0 | 2.6 | 0.00 | 0.00 | 0.00 | 87 | 1018.6 |
| 20260906105535 | 61 | 0 | 0.0 | 2.6 | 0.00 | 0.00 | 0.00 | 86 | 1018.5 |
| 20260906105036 | 61 | 337 | 0.0 | 2.6 | 0.00 | 0.00 | 0.00 | 86 | 1018.6 |
| 20260906104546 | 61 | 0 | 0.0 | 2.6 | 0.00 | 0.00 | 0.00 | 86 | 1018.6 |
| 20260906104037 | 61 | 342 | 0.0 | 2.6 | 0.00 | 0.00 | 0.00 | 86 | 1018.6 |
| 20260906103536 | 62 | 0 | 0.9 | 2.6 | 0.00 | 0.00 | 0.00 | 85 | 1018.5 |
| 20260906103054 | 62 | 352 | 0.0 | 1.7 | 0.00 | 0.00 | 0.00 | 84 | 1018.6 |
| 20260906102536 | 62 | 0 | 0.0 | 1.7 | 0.00 | 0.00 | 0.00 | 85 | 1018.6 |
| 20260906102036 | 62 | 0 | 0.0 | 2.6 | 0.00 | 0.00 | 0.00 | 85 | 1018.5 |
| 20260906101553 | 62 | 0 | 0.0 | 4.3 | 0.00 | 0.00 | 0.00 | 85 | 1018.7 |
| 20260906101037 | 62 | 34 | 1.7 | 4.3 | 0.00 | 0.00 | 0.00 | 85 | 1018.5 |
| 20260906100538 | 62 | 36 | 0.9 | 2.6 | 0.00 | 0.00 | 0.00 | 85 | 1018.6 |
| 20260906100051 | 62 | 30 | 0.0 | 4.3 | 0.00 | 0.00 | 0.00 | 85 | 1018.6 |
| 20260906095534 | 62 | 17 | 1.7 | 4.3 | 0.00 | 0.00 | 0.00 | 85 | 1018.7 |
| 20260906095037 | 63 | 18 | 1.7 | 3.5 | 0.00 | 0.00 | 0.00 | 84 | 1018.6 |
| 20260906094600 | 63 | 0 | 0.0 | 2.6 | 0.00 | 0.00 | 0.00 | 84 | 1018.7 |
| 20260906094037 | 63 | 0 | 0.0 | 2.6 | 0.00 | 0.00 | 0.00 | 84 | 1018.7 |
| 20260906093536 | 63 | 45 | 0.0 | 2.6 | 0.00 | 0.00 | 0.00 | 84 | 1018.6 |
| 20260906093102 | 63 | 0 | 0.0 | 3.5 | 0.00 | 0.00 | 0.00 | 84 | 1018.7 |
| 20260906092536 | 63 | 360 | 0.0 | 3.5 | 0.00 | 0.00 | 0.00 | 84 | 1018.5 |
| 20260906092038 | 63 | 360 | 0.9 | 2.6 | 0.00 | 0.00 | 0.00 | 83 | 1018.5 |
| 20260906091550 | 63 | 360 | 0.0 | 2.6 | 0.00 | 0.00 | 0.00 | 83 | 1018.5 |
| 20260906091037 | 63 | 0 | 0.0 | 3.5 | 0.00 | 0.00 | 0.00 | 83 | 1018.5 |
| 20260906090539 | 63 | 360 | 1.7 | 4.3 | 0.00 | 0.00 | 0.00 | 82 | 1018.4 |
| 20260906090138 | 63 | 360 | 1.7 | 4.3 | 0.00 | 0.00 | 0.00 | 81 | 1018.4 |
| 20260906085534 | 64 | 360 | 1.7 | 5.2 | 0.00 | 0.00 | 0.00 | 80 | 1018.4 |
| 20260906085037 | 64 | 360 | 0.9 | 5.2 | 0.00 | 0.00 | 0.00 | 79 | 1018.2 |
| 20260906084603 | 65 | 360 | 2.6 | 8.7 | 0.00 | 0.00 | 0.00 | 78 | 1018.1 |
| 20260906084036 | 65 | 360 | 4.3 | 8.7 | 0.00 | 0.00 | 0.00 | 77 | 1018.0 |
| 20260906083535 | 65 | 360 | 4.3 | 8.7 | 0.00 | 0.00 | 0.00 | 76 | 1017.9 |
| 20260906083053 | 65 | 360 | 4.3 | 8.7 | 0.00 | 0.00 | 0.00 | 75 | 1017.9 |
| 20260906082536 | 66 | 360 | 3.5 | 7.8 | 0.00 | 0.00 | 0.00 | 75 | 1017.9 |
| 20260906082034 | 66 | 360 | 3.5 | 8.7 | 0.00 | 0.00 | 0.00 | 74 | 1017.9 |
| 20260906081552 | 66 | 360 | 4.3 | 8.7 | 0.00 | 0.00 | 0.00 | 73 | 1017.9 |
| 20260906081035 | 66 | 360 | 4.3 | 8.7 | 0.00 | 0.00 | 0.00 | 72 | 1017.9 |
| 20260906080537 | 66 | 360 | 5.2 | 9.6 | 0.00 | 0.00 | 0.00 | 70 | 1017.9 |
| 20260906075535 | 66 | 360 | 4.3 | 7.8 | 0.00 | 0.00 | 0.00 | 67 | 1018.0 |
| 20260906075035 | 66 | 360 | 1.7 | 5.2 | 0.00 | 0.00 | 0.00 | 67 | 1018.1 |
| 20260906074554 | 67 | 360 | 3.5 | 5.2 | 0.00 | 0.00 | 0.00 | 65 | 1018.2 |
| 20260906074033 | 67 | 360 | 2.6 | 5.2 | 0.00 | 0.00 | 0.00 | 65 | 1018.2 |
| 20260906073533 | 67 | 360 | 3.5 | 7.0 | 0.00 | 0.00 | 0.00 | 65 | 1018.2 |
| 20260906073043 | 68 | 360 | 4.3 | 7.0 | 0.00 | 0.00 | 0.00 | 64 | 1018.3 |
| 20260906072536 | 68 | 360 | 3.5 | 7.0 | 0.00 | 0.00 | 0.00 | 64 | 1018.2 |
| 20260906072035 | 67 | 360 | 1.7 | 3.5 | 0.00 | 0.00 | 0.00 | 65 | 1018.2 |
| 20260906071553 | 67 | 0 | 0.0 | 0.0 | 0.00 | 0.00 | 0.00 | 64 | 1018.2 |
| 20260906071033 | 67 | 0 | 0.0 | 0.9 | 0.00 | 0.00 | 0.00 | 63 | 1018.2 |
| 20260906070536 | 68 | 0 | 0.0 | 1.7 | 0.00 | 0.00 | 0.00 | 62 | 1018.2 |
| 20260906070052 | 68 | 0 | 0.9 | 1.7 | 0.00 | 0.00 | 0.00 | 61 | 1018.0 |
| 20260906065537 | 68 | 360 | 0.9 | 1.7 | 0.00 | 0.00 | 0.00 | 60 | 1017.9 |
| 20260906065035 | 68 | 0 | 0.0 | 1.7 | 0.00 | 0.00 | 0.00 | 59 | 1017.9 |
| 20260906064549 | 69 | 0 | 0.0 | 2.6 | 0.00 | 0.00 | 0.00 | 59 | 1018.0 |
| 20260906064033 | 69 | 0 | 0.9 | 2.6 | 0.00 | 0.00 | 0.00 | 58 | 1017.8 |
| 20260906063534 | 69 | 360 | 0.9 | 2.6 | 0.00 | 0.00 | 0.00 | 57 | 1017.7 |
| 20260906063057 | 70 | 360 | 0.9 | 4.3 | 0.00 | 0.00 | 0.00 | 57 | 1017.7 |
| 20260906062535 | 70 | 360 | 0.9 | 5.2 | 0.00 | 0.00 | 0.00 | 57 | 1017.7 |
| 20260906062036 | 70 | 360 | 1.7 | 5.2 | 0.00 | 0.00 | 0.00 | 55 | 1017.8 |
| 20260906061604 | 70 | 360 | 1.7 | 7.8 | 0.00 | 0.00 | 0.00 | 55 | 1017.8 |
| 20260906061035 | 71 | 360 | 4.3 | 7.8 | 0.00 | 0.00 | 0.00 | 55 | 1018.0 |
| 20260906060533 | 71 | 360 | 3.5 | 7.0 | 0.00 | 0.00 | 0.00 | 54 | 1018.0 |
| 20260906060052 | 71 | 28 | 0.9 | 4.3 | 0.00 | 0.00 | 0.00 | 53 | 1017.9 |
| 20260906055535 | 72 | 334 | 1.7 | 6.1 | 0.00 | 0.00 | 0.00 | 51 | 1017.9 |
| 20260906055035 | 72 | 313 | 2.6 | 7.0 | 0.00 | 0.00 | 0.00 | 50 | 1018.1 |
| 20260906054553 | 72 | 280 | 3.5 | 7.8 | 0.00 | 0.00 | 0.00 | 51 | 1018.2 |
| 20260906054036 | 72 | 291 | 2.6 | 7.8 | 0.00 | 0.00 | 0.00 | 51 | 1018.1 |
| 20260906053533 | 72 | 288 | 5.2 | 7.8 | 0.00 | 0.00 | 0.00 | 52 | 1018.0 |
| 20260906053107 | 72 | 298 | 1.7 | 5.2 | 0.00 | 0.00 | 0.00 | 52 | 1018.2 |
| 20260906052539 | 72 | 263 | 0.9 | 6.1 | 0.00 | 0.00 | 0.00 | 52 | 1018.2 |
| 20260906052036 | 72 | 254 | 0.9 | 7.8 | 0.00 | 0.00 | 0.00 | 53 | 1018.3 |
| 20260906051551 | 72 | 267 | 3.5 | 7.8 | 0.00 | 0.00 | 0.00 | 53 | 1018.4 |
| 20260906051035 | 72 | 0 | 1.7 | 3.5 | 0.00 | 0.00 | 0.00 | 52 | 1018.3 |
| 20260906050538 | 72 | 257 | 0.0 | 1.7 | 0.00 | 0.00 | 0.00 | 51 | 1018.1 |
| 20260906050049 | 72 | 0 | 0.0 | 2.6 | 0.00 | 0.00 | 0.00 | 51 | 1017.9 |
| 20260906045534 | 72 | 0 | 0.0 | 2.6 | 0.00 | 0.00 | 0.00 | 51 | 1017.7 |
| 20260906045036 | 72 | 9 | 0.0 | 1.7 | 0.00 | 0.00 | 0.00 | 50 | 1017.6 |
| 20260906044546 | 72 | 11 | 0.0 | 1.7 | 0.00 | 0.00 | 0.00 | 51 | 1017.6 |
| 20260906044038 | 72 | 0 | 0.0 | 2.6 | 0.00 | 0.00 | 0.00 | 50 | 1017.7 |
| 20260906043536 | 72 | 11 | 0.9 | 3.5 | 0.00 | 0.00 | 0.00 | 50 | 1017.6 |
| 20260906043042 | 72 | 9 | 0.9 | 3.5 | 0.00 | 0.00 | 0.00 | 49 | 1017.6 |
| 20260906042533 | 72 | 37 | 0.9 | 2.6 | 0.00 | 0.00 | 0.00 | 49 | 1017.6 |
| 20260906042036 | 73 | 71 | 0.9 | 4.3 | 0.00 | 0.00 | 0.00 | 47 | 1017.5 |
| 20260906041557 | 74 | 0 | 0.9 | 7.8 | 0.00 | 0.00 | 0.00 | 44 | 1017.6 |
| 20260906041034 | 75 | 14 | 3.5 | 7.8 | 0.00 | 0.00 | 0.00 | 44 | 1017.5 |
| 20260906040533 | 75 | 37 | 3.5 | 7.8 | 0.00 | 0.00 | 0.00 | 43 | 1017.3 |
| 20260906040052 | 75 | 22 | 3.5 | 8.7 | 0.00 | 0.00 | 0.00 | 42 | 1017.3 |
| 20260906035539 | 75 | 29 | 3.5 | 8.7 | 0.00 | 0.00 | 0.00 | 41 | 1017.2 |
| 20260906035035 | 75 | 9 | 3.5 | 8.7 | 0.00 | 0.00 | 0.00 | 39 | 1017.2 |
| 20260906034547 | 75 | 9 | 2.6 | 7.8 | 0.00 | 0.00 | 0.00 | 38 | 1017.3 |
| 20260906034034 | 76 | 12 | 1.7 | 6.1 | 0.00 | 0.00 | 0.00 | 37 | 1017.4 |
| 20260906033538 | 76 | 11 | 2.6 | 7.8 | 0.00 | 0.00 | 0.00 | 36 | 1017.3 |
| 20260906033055 | 77 | 19 | 3.5 | 9.6 | 0.00 | 0.00 | 0.00 | 35 | 1017.1 |
| 20260906032535 | 77 | 352 | 5.2 | 10.4 | 0.00 | 0.00 | 0.00 | 35 | 1017.0 |
| 20260906032035 | 77 | 21 | 5.2 | 10.4 | 0.00 | 0.00 | 0.00 | 34 | 1016.9 |
| 20260906031550 | 78 | 14 | 6.1 | 10.4 | 0.00 | 0.00 | 0.00 | 34 | 1016.9 |
| 20260906031035 | 78 | 5 | 7.0 | 11.3 | 0.00 | 0.00 | 0.00 | 34 | 1016.7 |
| 20260906030536 | 78 | 346 | 7.0 | 11.3 | 0.00 | 0.00 | 0.00 | 34 | 1016.7 |
| 20260906030052 | 78 | 5 | 7.0 | 10.4 | 0.00 | 0.00 | 0.00 | 34 | 1016.6 |
| 20260906025535 | 78 | 13 | 7.0 | 10.4 | 0.00 | 0.00 | 0.00 | 34 | 1016.5 |
| 20260906025038 | 78 | 13 | 3.5 | 9.6 | 0.00 | 0.00 | 0.00 | 33 | 1016.5 |
| 20260906024605 | 79 | 22 | 3.5 | 9.6 | 0.00 | 0.00 | 0.00 | 33 | 1016.5 |
| 20260906024036 | 79 | 27 | 3.5 | 9.6 | 0.00 | 0.00 | 0.00 | 32 | 1016.4 |
| 20260906023534 | 79 | 335 | 4.3 | 10.4 | 0.00 | 0.00 | 0.00 | 32 | 1016.4 |
| 20260906023102 | 79 | 298 | 5.2 | 10.4 | 0.00 | 0.00 | 0.00 | 32 | 1016.3 |
| 20260906022536 | 79 | 324 | 4.3 | 10.4 | 0.00 | 0.00 | 0.00 | 33 | 1016.2 |
| 20260906022035 | 79 | 360 | 5.2 | 12.2 | 0.00 | 0.00 | 0.00 | 33 | 1016.2 |
| 20260906021551 | 79 | 360 | 7.0 | 12.2 | 0.00 | 0.00 | 0.00 | 32 | 1016.0 |
| 20260906021035 | 80 | 360 | 7.0 | 13.0 | 0.00 | 0.00 | 0.00 | 31 | 1015.9 |
| 20260906020534 | 80 | 360 | 7.8 | 14.8 | 0.00 | 0.00 | 0.00 | 31 | 1015.8 |
| 20260906020051 | 80 | 360 | 9.6 | 14.8 | 0.00 | 0.00 | 0.00 | 30 | 1015.7 |
| 20260906015534 | 80 | 360 | 8.7 | 13.0 | 0.00 | 0.00 | 0.00 | 30 | 1015.7 |
| 20260906015034 | 81 | 360 | 8.7 | 13.0 | 0.00 | 0.00 | 0.00 | 30 | 1015.7 |
| 20260906014555 | 81 | 360 | 8.7 | 13.9 | 0.00 | 0.00 | 0.00 | 30 | 1015.7 |
| 20260906014034 | 81 | 360 | 9.6 | 13.9 | 0.00 | 0.00 | 0.00 | 29 | 1015.5 |
| 20260906013534 | 82 | 360 | 6.1 | 9.6 | 0.00 | 0.00 | 0.00 | 29 | 1015.7 |
| 20260906013053 | 82 | 360 | 4.3 | 12.2 | 0.00 | 0.00 | 0.00 | 29 | 1015.6 |
| 20260906012535 | 83 | 360 | 6.1 | 12.2 | 0.00 | 0.00 | 0.00 | 27 | 1015.6 |
| 20260906012035 | 84 | 360 | 7.0 | 12.2 | 0.00 | 0.00 | 0.00 | 27 | 1015.4 |
| 20260906011559 | 84 | 360 | 4.3 | 8.7 | 0.00 | 0.00 | 0.00 | 27 | 1015.4 |
| 20260906011034 | 85 | 360 | 4.3 | 9.6 | 0.00 | 0.00 | 0.00 | 26 | 1015.4 |
| 20260906010534 | 85 | 360 | 5.2 | 9.6 | 0.00 | 0.00 | 0.00 | 26 | 1015.4 |
| 20260906010124 | 85 | 360 | 5.2 | 8.7 | 0.00 | 0.00 | 0.00 | 25 | 1015.3 |
| 20260906005534 | 86 | 305 | 3.5 | 7.0 | 0.00 | 0.00 | 0.00 | 25 | 1015.3 |
| 20260906005034 | 87 | 306 | 3.5 | 6.1 | 0.00 | 0.00 | 0.00 | 24 | 1015.4 |
| 20260906004552 | 88 | 325 | 3.5 | 7.0 | 0.00 | 0.00 | 0.00 | 24 | 1015.4 |
| 20260906004033 | 89 | 323 | 3.5 | 7.0 | 0.00 | 0.00 | 0.00 | 23 | 1015.3 |
| 20260906003533 | 89 | 342 | 2.6 | 7.0 | 0.00 | 0.00 | 0.00 | 23 | 1015.4 |
| 20260906003050 | 90 | 12 | 2.6 | 6.1 | 0.00 | 0.00 | 0.00 | 25 | 1015.4 |
| 20260906002535 | 90 | 38 | 1.7 | 3.5 | 0.00 | 0.00 | 0.00 | 25 | 1015.3 |
| 20260906002035 | 90 | 0 | 0.0 | 4.3 | 0.00 | 0.00 | 0.00 | 24 | 1015.3 |
| 20260906001602 | 90 | 54 | 1.7 | 4.3 | 0.00 | 0.00 | 0.00 | 24 | 1015.3 |
| 20260906001034 | 91 | 63 | 2.6 | 7.0 | 0.00 | 0.00 | 0.00 | 23 | 1015.2 |
| 20260906000534 | 91 | 57 | 3.5 | 7.0 | 0.00 | 0.00 | 0.00 | 23 | 1015.1 |
| 20260906000045 | 91 | 52 | 3.5 | 9.6 | 0.00 | 0.00 | 0.00 | 24 | 1015.2 |
| 20260905235534 | 91 | 16 | 5.2 | 9.6 | 0.00 | 0.00 | 0.00 | 24 | 1015.1 |
| 20260905235034 | 91 | 5 | 4.3 | 8.7 | 0.00 | 0.00 | 0.00 | 24 | 1015.2 |
| 20260905234556 | 92 | 14 | 4.3 | 11.3 | 0.00 | 0.00 | 0.00 | 23 | 1015.2 |
| 20260905234036 | 92 | 30 | 5.2 | 11.3 | 0.00 | 0.00 | 0.00 | 23 | 1015.2 |
| 20260905233535 | 92 | 41 | 6.1 | 11.3 | 0.00 | 0.00 | 0.00 | 23 | 1015.2 |
| 20260905233051 | 92 | 15 | 5.2 | 9.6 | 0.00 | 0.00 | 0.00 | 24 | 1015.1 |
| 20260905232536 | 92 | 72 | 5.2 | 9.6 | 0.00 | 0.00 | 0.00 | 23 | 1015.1 |
| 20260905232035 | 93 | 45 | 4.3 | 7.8 | 0.00 | 0.00 | 0.00 | 22 | 1015.1 |
| 20260905231550 | 93 | 53 | 2.6 | 6.1 | 0.00 | 0.00 | 0.00 | 22 | 1015.1 |
| 20260905231034 | 93 | 122 | 1.7 | 7.0 | 0.00 | 0.00 | 0.00 | 21 | 1015.1 |
| 20260905230534 | 93 | 77 | 0.9 | 7.0 | 0.00 | 0.00 | 0.00 | 21 | 1015.0 |
| 20260905230107 | 93 | 192 | 2.6 | 7.8 | 0.00 | 0.00 | 0.00 | 20 | 1015.0 |
| 20260905225534 | 93 | 0 | 3.5 | 7.8 | 0.00 | 0.00 | 0.00 | 20 | 1014.8 |
| 20260905225033 | 93 | 157 | 1.7 | 7.0 | 0.00 | 0.00 | 0.00 | 20 | 1014.8 |
| 20260905224552 | 92 | 155 | 1.7 | 6.1 | 0.00 | 0.00 | 0.00 | 21 | 1014.9 |
| 20260905224034 | 93 | 141 | 1.7 | 6.1 | 0.00 | 0.00 | 0.00 | 21 | 1015.0 |
| 20260905223534 | 94 | 63 | 1.7 | 6.1 | 0.00 | 0.00 | 0.00 | 22 | 1015.0 |
| 20260905223049 | 94 | 72 | 1.7 | 7.8 | 0.00 | 0.00 | 0.00 | 21 | 1014.9 |
| 20260905222533 | 94 | 113 | 5.2 | 7.8 | 0.00 | 0.00 | 0.00 | 21 | 1015.0 |
| 20260905222034 | 94 | 136 | 4.3 | 10.4 | 0.00 | 0.00 | 0.00 | 21 | 1015.0 |
| 20260905221557 | 95 | 118 | 2.6 | 10.4 | 0.00 | 0.00 | 0.00 | 18 | 1015.0 |
| 20260905221036 | 95 | 106 | 3.5 | 7.8 | 0.00 | 0.00 | 0.00 | 19 | 1015.0 |
| 20260905220533 | 96 | 69 | 2.6 | 7.0 | 0.00 | 0.00 | 0.00 | 18 | 1015.1 |
| 20260905220054 | 95 | 54 | 0.9 | 7.0 | 0.00 | 0.00 | 0.00 | 17 | 1015.3 |
| 20260905215537 | 96 | 330 | 3.5 | 6.1 | 0.00 | 0.00 | 0.00 | 16 | 1015.2 |